Theta_e
310 309 309 308 309 311 312 313 314 314 314 315 316 315 314 314 312 310 313 313 314 315 315 315 315 315 315 323 345 349 347 345 343 342 343 346 344 340 339 342 343 334 340 340
309 309 310 310 310 310 311 313 313 314 315 315 315 315 314 313 312 313 313 314 314 315 315 315 316 315 316 320 338 350 346 344 341 341 342 346 343 343 341 344 346 344 344 340
309 310 311 311 312 313 312 313 314 315 315 315 314 315 314 314 312 313 314 315 314 315 316 315 316 315 317 325 332 347 347 344 342 341 345 346 345 346 345 347 348 347 345 343
310 311 312 313 313 313 314 313 314 316 316 317 314 318 315 314 313 312 314 314 314 314 315 315 316 316 315 321 325 335 347 343 338 335 346 346 346 347 339 345 347 347 345 342
313 313 312 313 314 314 315 314 314 314 314 314 315 315 314 313 313 313 312 313 315 315 315 315 315 315 316 316 325 328 344 340 338 344 345 344 347 346 339 333 336 347 345 343
312 313 313 314 314 315 316 316 314 313 312 319 315 315 315 313 313 312 310 313 314 314 314 315 316 315 315 315 317 328 339 342 341 341 336 343 347 347 344 344 346 345 345 344
314 315 315 313 313 312 314 316 319 317 317 318 314 315 315 313 312 311 310 313 314 315 315 315 315 315 315 315 316 323 334 341 342 339 336 346 344 344 345 342 338 344 345 345
314 313 315 314 313 313 313 315 317 320 318 314 314 314 313 313 313 313 313 314 315 315 315 317 316 316 315 315 315 318 327 339 342 341 344 347 343 342 346 339 334 335 342 340
315 315 313 312 311 312 314 316 316 318 316 317 314 314 314 313 313 314 315 316 317 317 318 317 317 316 316 315 315 317 323 334 338 343 347 343 336 339 336 333 333 341 337 333
312 315 313 312 311 311 312 313 317 319 320 318 315 316 316 316 316 316 315 314 316 317 317 318 317 315 316 316 315 316 318 328 333 344 344 343 338 340 336 334 335 337 335 333
311 313 313 312 313 311 312 315 316 317 318 318 317 313 311 315 315 316 314 315 316 316 316 318 315 317 317 315 315 315 318 328 334 340 344 344 345 343 338 340 338 337 334 339
310 314 313 312 311 311 311 312 313 317 314 317 318 316 313 315 317 314 315 317 317 316 316 316 318 316 317 318 315 315 321 332 337 339 340 342 343 340 340 340 338 336 336 334
312 313 314 312 309 313 314 315 315 315 314 316 316 314 315 315 315 314 314 315 317 317 317 317 318 318 316 320 317 320 327 337 344 336 341 342 341 338 337 336 335 338 336 330
312 312 315 316 316 314 314 313 313 313 315 313 313 313 312 313 313 313 313 313 315 317 317 316 317 319 316 322 336 333 342 347 345 341 341 340 339 336 337 337 338 337 332 328
313 314 313 313 313 313 313 313 313 315 315 317 315 315 313 313 313 315 315 313 316 318 317 317 318 319 318 320 337 335 343 346 343 340 341 341 339 340 338 339 336 334 328 323
310 313 313 315 314 314 314 313 314 313 316 316 318 316 314 313 312 312 314 317 319 317 316 317 321 321 319 321 333 333 342 343 341 337 339 337 337 337 338 335 334 327 322 317
307 309 310 312 313 311 315 314 311 310 311 313 319 314 311 312 311 311 311 311 314 320 318 318 324 320 319 324 331 333 339 339 337 337 337 335 335 335 334 331 329 320 317 316
308 308 311 312 310 304 311 309 308 308 310 311 309 310 310 310 309 309 310 310 313 320 322 325 324 324 327 329 332 332 335 335 336 334 332 334 335 331 327 325 321 318 316 315
308 308 310 313 312 309 314 311 309 308 309 308 307 308 307 308 310 309 314 317 319 321 320 325 329 324 329 331 333 334 331 330 330 328 328 328 327 326 321 320 317 315 314 313
312 310 311 310 313 315 309 307 306 306 312 306 306 305 306 308 312 312 313 316 319 322 319 326 326 329 328 327 330 328 322 323 322 322 327 326 328 325 323 315 312 312 312 311
310 308 306 307 311 309 306 306 305 310 310 304 303 304 308 311 312 313 313 318 322 322 317 324 324 324 323 325 326 320 318 316 316 318 322 323 324 324 316 312 311 312 311 310
310 308 303 306 307 310 304 306 306 305 304 303 303 306 310 311 314 315 317 321 323 321 325 325 324 323 324 325 325 322 322 323 321 320 319 322 322 315 311 311 310 310 309 309
311 308 307 307 305 303 303 303 304 303 303 304 305 308 310 311 315 319 324 325 326 325 324 323 323 321 322 323 325 320 319 320 323 320 319 313 311 311 310 309 309 309 308 306
309 304 306 305 305 303 303 303 302 303 303 305 307 309 312 313 318 320 324 324 324 322 321 322 322 320 319 320 319 319 319 319 319 317 313 310 310 308 308 308 309 308 302 300
306 303 305 305 304 302 304 303 302 302 303 305 309 311 313 316 317 318 320 321 320 320 320 320 320 319 317 318 318 318 319 320 317 313 311 309 308 308 307 306 302 299 297 297
302 304 305 304 303 302 302 301 302 302 303 306 309 312 315 315 316 319 319 316 316 316 317 316 316 317 316 318 318 319 318 318 314 311 308 307 306 305 301 297 294 294 294 294
Wind_Speed
6 2 7 12 10 14 12 11 11 12 10 6 13 16 18 16 19 18 25 21 25 30 29 20 15 9 10 15 31 53 48 43 40 37 33 28 24 23 22 19 15 18 17 15
2 7 15 11 9 8 11 13 14 9 9 6 14 18 18 13 12 24 26 26 25 27 28 24 17 9 9 13 22 40 45 44 43 42 37 31 26 22 22 20 16 15 15 15
8 9 3 7 5 7 7 6 10 13 17 12 10 16 11 8 10 20 28 31 26 26 26 24 17 12 9 15 19 33 46 47 45 38 31 28 26 23 21 21 19 18 14 14
6 6 4 7 8 7 15 10 12 11 8 11 4 19 15 8 14 13 27 33 35 34 33 28 21 15 12 20 21 28 48 45 40 39 35 32 32 29 29 24 19 18 15 16
9 4 8 8 12 12 13 13 14 12 11 13 3 7 2 4 12 14 13 30 37 35 29 30 27 25 16 15 26 26 33 38 38 43 36 31 33 32 34 25 23 22 21 17
5 10 5 5 3 1 7 5 4 0 2 12 11 11 12 8 13 9 7 25 35 37 29 28 20 21 21 17 23 31 35 35 41 42 35 31 33 33 28 27 28 29 22 17
6 4 1 4 4 6 7 5 4 3 1 8 7 11 19 7 7 7 9 19 31 31 28 26 27 24 19 18 22 30 36 41 43 40 38 41 35 28 32 31 29 24 22 17
3 6 5 7 6 6 7 6 3 6 4 5 5 6 6 14 18 18 17 23 26 28 25 27 24 23 21 17 21 26 36 42 43 39 46 46 32 32 30 27 21 29 22 8
4 6 14 19 20 3 2 4 5 5 6 8 5 6 6 10 10 4 3 4 12 22 25 25 23 27 22 21 18 23 34 43 44 44 46 37 34 37 27 24 33 29 18 10
4 11 9 7 5 10 9 5 3 4 4 5 4 4 6 4 1 3 4 7 18 23 29 28 24 21 26 25 24 26 27 40 44 47 49 42 37 33 31 35 40 30 26 24
3 5 5 6 6 5 1 2 2 3 3 3 4 4 5 6 4 5 7 12 18 23 28 26 15 12 16 23 27 29 29 39 47 45 47 42 39 37 38 41 38 34 23 21
7 4 6 16 18 10 9 11 5 4 4 4 3 11 9 4 5 5 9 21 28 27 30 27 22 23 17 17 29 29 32 40 50 46 43 42 45 42 43 44 37 28 21 27
4 3 5 8 5 2 2 4 8 8 6 12 8 6 2 7 8 15 14 26 28 30 28 30 29 27 23 12 26 28 33 43 51 48 47 47 42 48 48 41 37 27 28 27
9 7 11 12 12 7 9 12 14 8 4 10 17 23 15 17 19 14 23 26 31 28 26 27 27 19 29 7 25 29 37 43 50 52 50 46 47 49 42 41 37 30 28 29
6 5 7 12 18 20 21 20 18 16 17 11 19 17 16 9 11 19 31 27 21 22 25 21 24 25 25 9 27 33 40 44 45 52 50 46 46 44 44 43 38 31 33 28
2 3 3 6 18 17 20 13 10 14 12 10 14 19 8 10 16 19 23 22 16 25 25 28 24 23 24 13 30 36 42 47 52 52 48 46 46 49 50 46 39 37 33 31
1 2 3 5 7 10 6 6 5 13 13 10 7 5 12 13 15 16 26 29 29 29 26 32 17 20 23 21 38 40 45 45 47 49 48 49 48 52 47 44 34 36 34 31
3 2 2 7 7 3 4 5 5 13 18 8 11 13 16 15 25 32 41 33 29 22 17 14 20 22 24 36 41 42 44 49 50 49 52 52 54 54 48 42 42 38 33 28
4 2 3 4 2 7 7 4 8 10 11 2 12 15 18 28 27 31 29 15 18 13 9 5 35 43 44 49 51 52 56 57 59 60 58 60 56 49 44 41 36 34 34 31
4 4 3 3 4 4 1 14 18 10 5 16 20 19 21 26 9 14 23 23 16 3 4 30 45 60 60 59 60 61 56 56 58 60 66 62 54 46 45 41 40 37 32 29
4 2 3 4 4 6 6 13 18 2 6 28 30 32 28 15 14 31 36 28 14 7 8 35 52 61 66 63 63 60 55 49 53 56 58 54 47 45 44 43 40 33 29 28
3 3 2 2 4 6 11 5 5 8 21 26 31 35 32 32 33 27 26 22 10 17 27 49 53 56 63 60 57 56 52 53 56 50 48 52 47 47 44 39 36 33 30 28
3 4 2 4 5 3 7 11 14 24 27 24 32 34 33 30 28 19 6 4 32 44 42 55 57 57 56 57 59 62 57 51 48 51 48 49 49 47 42 38 35 33 28 26
3 2 3 2 3 5 21 10 21 29 30 34 33 31 27 23 9 17 21 28 40 42 51 54 61 63 60 63 68 69 59 54 55 53 51 49 47 44 39 34 30 29 28 27
2 1 3 6 10 15 4 20 30 34 31 31 30 23 19 10 17 31 35 34 30 42 50 51 55 61 60 64 65 60 53 53 54 54 53 51 46 41 38 34 31 30 28 24
6 4 3 4 6 9 17 26 28 27 29 30 26 17 12 14 29 37 36 36 30 43 47 52 57 61 59 59 56 52 52 52 54 55 53 49 45 43 41 40 38 31 29 26
Wind_Direction
288 47 256 248 227 253 274 270 259 271 272 294 283 269 279 289 296 281 281 278 284 286 281 299 327 319 265 244 214 207 208 196 192 191 191 190 190 194 200 198 196 197 206 208
355 242 253 265 271 248 256 263 273 277 270 263 276 275 279 274 265 272 277 280 280 289 289 285 303 329 241 241 227 210 199 190 189 193 194 188 177 176 186 183 192 193 209 210
218 246 255 265 263 295 284 239 260 266 283 276 276 275 265 286 245 268 276 278 279 278 286 285 293 291 239 217 227 216 197 191 195 190 192 184 191 168 178 193 204 204 212 219
225 253 206 293 283 258 276 256 264 265 263 272 140 291 271 263 260 243 260 267 270 271 271 275 278 287 264 223 222 229 205 204 219 201 189 187 185 172 183 188 205 203 204 219
264 273 289 279 267 285 280 272 254 255 264 280 206 271 186 197 264 254 247 258 266 271 269 269 270 271 268 239 225 230 219 210 206 193 196 193 191 189 189 184 197 218 202 207
263 263 227 242 312 62 333 332 299 102 166 260 241 225 264 249 250 271 234 254 269 277 277 278 268 264 254 251 229 225 216 220 204 207 207 203 197 195 185 184 192 197 196 193
312 285 307 43 0 329 30 37 326 307 226 261 208 227 243 259 239 226 250 271 277 279 280 286 279 267 252 247 219 223 220 212 207 217 207 198 196 201 203 181 184 207 208 199
329 327 14 2 302 253 283 170 194 281 255 273 333 253 255 231 252 261 263 275 283 286 282 308 279 256 248 244 226 214 221 213 220 214 200 200 203 206 195 177 212 217 216 194
309 264 310 293 293 186 204 195 184 250 242 268 222 271 295 261 260 234 277 319 320 320 312 289 299 251 240 236 232 208 219 221 214 208 200 203 198 202 215 211 204 215 196 196
246 287 276 295 326 266 195 184 214 204 249 251 275 249 242 255 247 3 324 323 329 325 319 312 305 256 239 240 231 215 216 217 218 208 203 204 201 207 181 182 201 195 197 201
190 227 283 327 216 232 7 250 227 242 233 255 289 251 233 245 199 251 277 301 311 304 310 307 279 207 219 218 221 223 211 214 216 204 205 199 194 188 181 187 193 194 195 199
203 227 265 275 271 283 268 252 236 243 228 231 282 266 274 209 278 314 304 299 307 300 293 293 286 246 231 213 202 213 213 205 210 199 200 194 192 194 196 191 189 189 186 181
177 225 303 311 352 30 228 190 216 234 250 240 251 258 107 302 314 309 303 291 290 290 294 290 282 252 217 209 193 204 205 198 200 198 190 187 193 188 184 187 186 177 178 173
198 252 238 256 267 273 279 270 273 244 244 262 241 269 268 285 298 302 293 283 281 274 280 286 283 251 219 187 182 190 186 186 189 186 185 184 187 187 187 185 176 173 172 171
184 257 215 246 261 267 268 275 280 271 261 257 272 266 262 260 294 300 291 286 279 279 287 286 280 251 200 176 172 182 179 177 172 176 179 180 184 187 184 173 167 172 169 166
40 280 297 272 261 262 269 264 277 274 288 302 284 269 296 328 328 317 318 312 293 284 291 291 271 226 190 193 170 174 165 163 176 176 177 181 180 173 172 164 165 164 161 158
151 269 279 268 333 308 254 166 310 312 295 306 291 309 315 315 309 301 295 286 280 279 299 289 227 217 182 173 167 166 162 171 174 172 175 175 172 161 159 154 156 160 157 154
181 244 257 291 324 349 173 108 357 324 294 353 338 315 315 303 297 283 279 267 271 293 299 275 190 169 164 166 161 159 166 168 171 169 168 171 163 154 149 156 153 157 155 151
185 202 289 291 276 277 177 33 339 324 293 77 324 325 316 309 302 280 283 278 287 307 284 261 154 154 161 153 155 159 155 157 159 159 160 154 148 146 147 147 152 154 151 144
228 218 233 308 277 277 39 330 317 300 267 350 334 317 309 307 288 282 290 319 326 186 222 137 133 139 138 135 145 143 137 145 146 152 155 150 143 146 152 152 153 151 145 137
301 331 230 267 272 280 358 326 325 12 316 322 313 305 303 305 293 285 296 315 303 171 171 136 128 127 130 134 139 127 127 125 132 140 142 137 146 150 147 151 152 143 140 138
281 307 270 265 270 283 9 339 3 314 304 302 303 307 308 311 302 303 301 289 214 158 149 131 123 122 124 128 130 123 123 130 132 138 150 143 147 143 147 148 142 138 140 143
259 209 255 217 246 307 333 315 311 318 310 312 312 310 309 306 305 313 262 70 134 140 132 125 124 120 124 128 131 128 130 141 147 150 139 135 139 143 143 142 139 136 142 147
249 153 242 322 242 287 310 313 329 325 322 326 321 319 318 318 325 84 106 95 121 123 121 126 125 120 123 127 133 140 151 154 148 144 139 141 140 137 138 136 135 141 144 142
243 192 250 254 285 323 352 325 323 323 328 329 334 337 337 4 85 93 96 101 100 117 120 123 122 125 127 140 146 152 154 152 144 142 142 142 140 135 131 130 135 140 138 134
182 220 224 262 300 306 293 312 322 321 326 333 339 358 44 88 94 109 103 97 114 113 125 127 127 133 137 143 143 149 151 150 144 141 141 138 133 130 132 134 132 130 128 126